Hilo, HI

4:25 PM HST on December 04, 2016 (GMT -1000)
Hilo International

Weather History for PHTO - July, 2012

Change the Weather History Date:

Sunday, July 1, 2012

  Actual Average Record
Temperature  
Mean Temperature 74 °F 76 °F  
Max Temperature 82 °F 83 °F 89 °F (2008)
Min Temperature 65 °F 69 °F 64 °F (1962)
Degree Days  
Heating Degree Days 0 0  
Month to date heating degree days 0 0  
Since 1 June heating degree days 0 0  
Since 1 July heating degree days 0 0  
Cooling Degree Days 9 11  
Month to date cooling degree days 9 11  
Year to date cooling degree days 1398 1385  
Since 1 June cooling degree days 298 317  
Growing Degree Days 23 (Base 50)    
Moisture  
Dew Point 63 °F    
Average Humidity 69    
Maximum Humidity 87    
Minimum Humidity 51    
Precipitation  
Precipitation 0.00 in 0.29 in 2.45 in (1963)
Month to date precipitation 0.00 0.29  
Year to date precipitation 50.74 59.57  
Snow  
Snow 0.00 in - - ()
Month to date snowfall 0.0  
Since 1 June snowfall 0.0  
Since 1 July snowfall 0.0  
Snow Depth 0.00 in    
Sea Level Pressure  
Sea Level Pressure 30.01 in    
Wind  
Wind Speed 6 mph (SSE)    
Max Wind Speed 13 mph    
Max Gust Speed 17 mph    
Visibility 10 miles    
Events      
T = Trace of Precipitation, MM = Missing Value Source: NWS Daily Summary

Daily Weather History Graph

Daily Weather History Graph

Search for Another Location

Airport or City:

Trip Planner

Search our weather history database for the weather conditions in past years. The results will help you decide how hot, cold, wet, or windy it might be!

Date:

Astronomy

Jul. 01, 2012 Rise Set
Actual Time 5:45 AM HST 7:03 PM HST
Civil Twilight 5:20 AM HST 7:27 PM HST
Nautical Twilight 4:51 AM HST 7:56 PM HST
Astronomical Twilight 4:21 AM HST 8:26 PM HST
Moon 5:19 PM HST (7/1) 3:39 AM HST (7/1)
Length of Visible Light 14h 06m
Length of Day
13h 17m
Waxing Gibbous, 95% of the Moon is Illuminated
Jul 1
Waxing Gibbous
Jul 3
Full
Jul 10
Last Quarter
Jul 18
New
Jul 25
First Quarter

Hourly Weather History & Observations

Time (HST) Temp. Heat Index Dew Point Humidity Pressure Visibility Wind Dir Wind Speed Gust Speed Precip Events Conditions
12:53 AM 66.9 °F - 63.0 °F 87% 30.02 in 10.0 mi SW 3.5 mph - N/A   Mostly Cloudy
1:53 AM 66.9 °F - 62.1 °F 84% 30.01 in 10.0 mi Calm Calm - N/A   Clear
2:53 AM 66.0 °F - 61.0 °F 84% 29.99 in 10.0 mi WSW 5.8 mph - N/A   Clear
3:53 AM 64.9 °F - 60.1 °F 84% 29.99 in 10.0 mi SW 5.8 mph - N/A   Clear
4:53 AM 64.9 °F - 57.9 °F 78% 29.99 in 10.0 mi WSW 6.9 mph - N/A   Scattered Clouds
5:53 AM 64.9 °F - 57.0 °F 75% 30.00 in 10.0 mi SW 6.9 mph - N/A   Mostly Cloudy
6:53 AM 68.0 °F - 59.0 °F 73% 30.01 in 10.0 mi WSW 4.6 mph - N/A   Scattered Clouds
7:53 AM 75.0 °F - 63.0 °F 66% 30.02 in 10.0 mi Calm Calm - N/A   Partly Cloudy
8:53 AM 78.1 °F - 63.0 °F 60% 30.02 in 10.0 mi ESE 4.6 mph - N/A   Partly Cloudy
9:53 AM 81.0 °F 82.2 °F 63.0 °F 54% 30.02 in 10.0 mi ESE 4.6 mph - N/A   Partly Cloudy
10:53 AM 81.0 °F 81.7 °F 61.0 °F 50% 30.02 in 10.0 mi Variable 6.9 mph - N/A   Partly Cloudy
11:53 AM 82.0 °F 83.4 °F 64.0 °F 54% 30.01 in 10.0 mi ESE 8.1 mph - N/A   Partly Cloudy
12:53 PM 81.0 °F 83.0 °F 66.0 °F 60% 30.00 in 10.0 mi East 8.1 mph - N/A   Partly Cloudy
1:53 PM 81.0 °F 82.7 °F 64.9 °F 58% 29.99 in 10.0 mi ESE 9.2 mph - N/A   Scattered Clouds
2:53 PM 81.0 °F 82.2 °F 63.0 °F 54% 29.98 in 10.0 mi East 8.1 mph - N/A   Partly Cloudy
3:53 PM 80.1 °F 81.9 °F 64.9 °F 60% 29.97 in 10.0 mi ENE 6.9 mph - N/A   Partly Cloudy
4:53 PM 79.0 °F - 64.9 °F 62% 29.97 in 10.0 mi ENE 9.2 mph - N/A   Clear
5:53 PM 78.1 °F - 64.0 °F 62% 29.98 in 10.0 mi East 5.8 mph - N/A   Clear
6:53 PM 73.9 °F - 64.9 °F 73% 30.00 in 10.0 mi Calm Calm - N/A   Scattered Clouds
7:53 PM 73.0 °F - 64.9 °F 76% 30.01 in 10.0 mi Calm Calm - N/A   Clear
8:53 PM 71.1 °F - 64.9 °F 81% 30.03 in 10.0 mi WSW 5.8 mph - N/A   Partly Cloudy
9:53 PM 71.1 °F - 64.9 °F 81% 30.04 in 10.0 mi SW 3.5 mph - N/A   Overcast
10:53 PM 69.1 °F - 62.1 °F 78% 30.05 in 10.0 mi SW 4.6 mph - N/A   Partly Cloudy
11:53 PM 66.9 °F - 61.0 °F 81% 30.05 in 10.0 mi SSE 4.6 mph - 0.01 in   Overcast